Regional Weather Roundup
Issued by NWS Nashville, TN

Home | Current Version | Previous Version | Text Only | Print | Product List | Glossary On
Versions: 1 2 3 4 5 6 7 8 9 10 11 12 13 14 15 16 17 18 19 20 21 22 23 24 25 26 27 28 29 30 31 32 33 34 35 36 37 38 39 40 41 42 43 44 45 46 47 48 49
000
ASUS44 KOHX 310010
RWROHX
MIDDLE TENNESSEE HOURLY WEATHER ROUNDUP
NATIONAL WEATHER SERVICE NASHVILLE TN
700 PM CDT SUN AUG 30 2015

NOTE: "FAIR" INDICATES FEW OR NO CLOUDS BELOW 12,000 FEET WITH
NO SIGNIFICANT WEATHER AND/OR OBSTRUCTIONS TO VISIBILITY.

* THESE REPORTS ARE NOT UNDER NWS QUALITY CONTROL AND MAY NOT
  REPORT WEATHER SUCH AS PRECIPITATION AND FOG.


TNZ005>011-023>034-057-059-062>066-078-080-310100
...NORTHERN MIDDLE TENNESSEE...

CITY           SKY/WX    TMP DP  RH WIND       PRES   REMARKS
CLARKSVILLE    LGT RAIN  74  70  87 W6        30.06F
CROSSVILLE     CLOUDY    72  66  81 MISG      30.13R
DICKSON        CLOUDY    75  68  78 CALM      30.08S
LIVINGSTON     CLOUDY    73  67  81 N3        30.11
NASHVILLE      MOCLDY    75  61  61 SE5       30.08S
SMYRNA         MOCLDY    77  67  71 CALM      30.09S
$$
TNZ056-058-060-061-075>077-079-093>097-310100
...SOUTHERN MIDDLE TENNESSEE...

CITY           SKY/WX    TMP DP  RH WIND       PRES   REMARKS
COLUMBIA       CLEAR     75  66  73 CALM      30.07S
LEWISBURG      MOCLDY    75  68  79 CALM      30.08S
MCMINNVILLE    MOCLDY    72  70  94 CALM      30.10R
SHELBYVILLE    MOCLDY    73  70  88 NE3       30.10S
TULLAHOMA      CLEAR     70  66  88 NW3       30.11S
WINCHESTER     PTCLDY    72  66  83 CALM      30.10R
$$


...KEY TO REMARKS...
VSB - VISIBILITY IN MILES
WCI - WIND CHILL INDEX
HX  - HEAT INDEX



USA.gov is the U.S. government's official web portal to all federal, state and local government web resources and services.